Simultaneous Nadir Overpasses (SNOs) Predictions

Prediction of SNOs between GOES-17 and AQUA Satellite Orbit:

Table of predicted SNOs for the next 14.0 days since TLE Epoch: 7/30/2022
Index Date Time (GOES-17) GOES-17 Lat,Lon AQUA Lat,Lon Distance(km) Time Diff (sec)
1 07/30/2022 22:36:56 -0.05,-137.30 0.49,-134.76 288.61 80
2 07/31/2022 11:00:44 0.06,-137.30 0.62,-139.88 293.63 80
3 08/02/2022 10:45:26 0.06,-137.30 -0.05,-136.81 56.15 80
4 08/04/2022 10:32:48 0.05,-137.30 -0.73,-133.74 405.27 80
5 08/04/2022 22:54:05 -0.05,-137.29 -0.40,-138.89 182.14 80
6 08/06/2022 22:44:07 -0.05,-137.28 0.29,-135.82 165.71 80
7 08/07/2022 11:04:40 0.05,-137.27 0.81,-140.95 417.36 46
8 08/09/2022 10:49:56 0.04,-137.24 0.18,-137.86 70.84 80
9 08/11/2022 10:39:57 0.03,-137.21 -0.46,-134.79 275.18 80
10 08/11/2022 22:58:34 -0.02,-137.20 -0.59,-139.96 313.00 80
